Location: *
(46.1200°N, 11.2700°E)
Time: 12:17:39
(UTC+00:00)

Cosmos 1980 Rocket - Pass Details

Date: 02 March 2021
Orbit: 828 x 851 km, 71.0° (Epoch: 17 April)

Event Time Altitude Azimuth Distance (km) Brightness Sun altitude
Rises 17:24:40 0° 218° (SW) 3,383 6.1 -4.6°
Reaches altitude 10° 17:27:08 10° 223° (SW) 2,456 5.4 -5.0°
Maximum altitude 17:32:40 56° 301° (WNW) 1,006 3.0 -6.0°
Drops below altitude 10° 17:38:17 10° 20° (NNE) 2,483 4.4 -6.9°
Sets 17:40:48 0° 24° (NNE) 3,425 5.1 -7.4°
